Flushing, NY

12:42 AM EST on February 27, 2017 (GMT -0500)
La Guardia

Weather History for KLGA - June, 2012

Change the Weather History Date:

Saturday, June 23, 2012

  Actual Average Record
Temperature  
Mean Temperature 78 °F 74 °F  
Max Temperature 86 °F 83 °F 95 °F (1965)
Min Temperature 70 °F 66 °F 54 °F (1972)
Degree Days  
Heating Degree Days 0 0  
Month to date heating degree days 11 15  
Since 1 June heating degree days 11 15  
Since 1 July heating degree days 3612 4663  
Cooling Degree Days 13 10  
Month to date cooling degree days 165 159  
Year to date cooling degree days 288 225  
Since 1 June cooling degree days 165 159  
Growing Degree Days 27 (Base 50)    
Moisture  
Dew Point 62 °F    
Average Humidity 67    
Maximum Humidity 100    
Minimum Humidity 34    
Precipitation  
Precipitation 0.11 in 0.12 in 1.33 in (2001)
Month to date precipitation 3.67 3.10  
Year to date precipitation 16.37 20.79  
Snow  
Snow 0.00 in 0.00 in - ()
Month to date snowfall 0.0 0.0  
Since 1 July snowfall 5.1 26.9  
Snow Depth 0.00 in    
Sea Level Pressure  
Sea Level Pressure 29.86 in    
Wind  
Wind Speed 8 mph (NNW)    
Max Wind Speed 15 mph    
Max Gust Speed 24 mph    
Visibility 9 miles    
Events Rain , Thunderstorm    
T = Trace of Precipitation, MM = Missing Value Source: NWS Daily Summary

Daily Weather History Graph

Daily Weather History Graph

Search for Another Location

Airport or City:

Trip Planner

Search our weather history database for the weather conditions in past years. The results will help you decide how hot, cold, wet, or windy it might be!

Date:

Astronomy

Jun. 23, 2012 Rise Set
Actual Time 5:24 AM EDT 8:30 PM EDT
Civil Twilight 4:51 AM EDT 9:04 PM EDT
Nautical Twilight 4:08 AM EDT 9:46 PM EDT
Astronomical Twilight 3:18 AM EDT 10:37 PM EDT
Moon 9:25 AM EDT (6/23) 10:56 PM EDT (6/23)
Length of Visible Light 16h 12m
Length of Day
15h 05m
Waxing Crescent, 16% of the Moon is Illuminated
Jun 23
Waxing Crescent
Jun 26
First Quarter
Jul 3
Full
Jul 10
Last Quarter
Jul 19
New

Hourly Weather History & Observations

Time (EDT) Temp. Heat Index Dew Point Humidity Pressure Visibility Wind Dir Wind Speed Gust Speed Precip Events Conditions
12:51 AM 73.0 °F - 69.1 °F 87% 29.81 in 7.0 mi Calm Calm - N/A   Overcast
1:51 AM 73.9 °F - 69.1 °F 85% 29.82 in 6.0 mi Calm Calm - N/A   Haze
1:55 AM 73.4 °F - 69.8 °F 88% 29.81 in 6.0 mi Calm Calm - N/A   Haze
2:51 AM 73.0 °F - 70.0 °F 90% 29.81 in 3.0 mi SSW 4.6 mph - 0.07 in Rain Rain
2:58 AM 73.4 °F - 69.8 °F 88% 29.81 in 3.0 mi Calm Calm - 0.03 in Rain , Thunderstorm Thunderstorms and Rain
3:44 AM 71.6 °F - 69.8 °F 94% 29.81 in 6.0 mi SE 4.6 mph - 0.04 in Rain Light Rain
3:51 AM 73.0 °F - 70.0 °F 90% 29.81 in 6.0 mi Calm Calm - 0.04 in   Overcast
4:44 AM 71.6 °F - 69.8 °F 94% 29.81 in 7.0 mi ENE 12.7 mph - N/A   Overcast
4:51 AM 70.0 °F - 69.1 °F 97% 29.82 in 10.0 mi East 8.1 mph - N/A   Mostly Cloudy
5:04 AM 71.6 °F - 69.8 °F 94% 29.82 in 10.0 mi NE 5.8 mph - N/A   Mostly Cloudy
5:45 AM 70.0 °F - 68.0 °F 93% 29.83 in 10.0 mi NNE 4.6 mph - N/A   Mostly Cloudy
5:51 AM 70.0 °F - 68.0 °F 93% 29.83 in 10.0 mi NNE 4.6 mph - N/A   Mostly Cloudy
6:51 AM 72.0 °F - 69.1 °F 91% 29.85 in 5.0 mi North 6.9 mph - N/A   Mostly Cloudy
7:51 AM 73.9 °F - 68.0 °F 82% 29.86 in 7.0 mi NW 6.9 mph - N/A   Mostly Cloudy
8:51 AM 73.4 °F - 62.6 °F 69% 29.87 in 10.0 mi NW 6.9 mph - N/A   Mostly Cloudy
9:51 AM 77.0 °F - 61.0 °F 58% 29.87 in 10.0 mi NW 9.2 mph - N/A   Scattered Clouds
10:51 AM 79.0 °F - 60.1 °F 52% 29.88 in 10.0 mi NW 6.9 mph - N/A   Scattered Clouds
11:51 AM 82.0 °F 82.0 °F 57.9 °F 44% 29.87 in 10.0 mi NW 3.5 mph - N/A   Scattered Clouds
12:51 PM 82.0 °F 81.3 °F 54.0 °F 38% 29.87 in 10.0 mi NNW 13.8 mph 18.4 mph N/A   Scattered Clouds
1:51 PM 82.4 °F 81.7 °F 55.4 °F 39% 29.87 in 10.0 mi NW 10.4 mph - N/A   Scattered Clouds
2:51 PM 82.4 °F 81.7 °F 55.4 °F 39% 29.87 in 10.0 mi NNW 15.0 mph 24.2 mph N/A   Scattered Clouds
3:51 PM 84.2 °F 82.8 °F 53.6 °F 35% 29.87 in 10.0 mi NW 13.8 mph 20.7 mph N/A   Scattered Clouds
4:51 PM 84.2 °F 82.8 °F 53.6 °F 35% 29.88 in 10.0 mi NW 12.7 mph 18.4 mph N/A   Scattered Clouds
5:51 PM 82.4 °F 81.4 °F 53.6 °F 37% 29.89 in 10.0 mi NW 15.0 mph - N/A   Scattered Clouds
6:51 PM 82.4 °F 81.4 °F 53.6 °F 37% 29.88 in 10.0 mi NW 15.0 mph - N/A   Scattered Clouds
7:51 PM 80.6 °F 80.3 °F 53.6 °F 39% 29.90 in 10.0 mi NW 15.0 mph - N/A   Scattered Clouds
8:51 PM 78.8 °F - 55.4 °F 44% 29.92 in 10.0 mi North 8.1 mph - N/A   Scattered Clouds
9:51 PM 75.9 °F - 57.9 °F 54% 29.96 in 10.0 mi North 3.5 mph - N/A   Scattered Clouds
10:51 PM 75.0 °F - 57.9 °F 55% 29.97 in 10.0 mi NE 3.5 mph - N/A   Scattered Clouds
11:51 PM 73.9 °F - 55.9 °F 53% 29.98 in 10.0 mi NNE 5.8 mph - N/A   Partly Cloudy